Time,TemperatureF,DewpointF,PressureIn,WindDirection,WindDirectionDegrees,WindSpeedMPH,WindSpeedGustMPH,Humidity,HourlyPrecipIn,Conditions,Clouds,dailyrainin,SoftwareType,DateUTC
2013-02-27 00:00:00,41.3,40.5,29.67,SSW,204,2.0,2.0,97,0.00,,,0.74,VWS V14.01,2013-02-27 05:00:00,
2013-02-27 00:02:00,41.3,40.5,29.67,WNW,299,0.0,1.0,97,0.00,,,0.00,VWS V14.01,2013-02-27 05:02:00,
2013-02-27 00:07:00,41.3,40.5,29.67,SSW,211,0.0,1.0,97,0.00,,,0.00,VWS V14.01,2013-02-27 05:07:00,
2013-02-27 00:12:00,41.2,40.4,29.67,SE,133,0.0,1.0,97,0.00,,,0.00,VWS V14.01,2013-02-27 05:12:00,
2013-02-27 00:15:00,41.1,40.3,29.67,SE,136,2.0,2.0,97,0.00,,,0.00,VWS V14.01,2013-02-27 05:15:00,
2013-02-27 00:21:00,41.0,40.2,29.67,SSE,163,1.0,1.0,97,0.00,,,0.00,VWS V14.01,2013-02-27 05:21:00,
2013-02-27 00:26:00,41.0,40.2,29.67,SSW,202,1.0,1.0,97,0.00,,,0.00,VWS V14.01,2013-02-27 05:26:00,
2013-02-27 00:31:00,40.9,40.1,29.67,SW,232,1.0,1.0,97,0.00,,,0.00,VWS V14.01,2013-02-27 05:31:00,
2013-02-27 00:36:00,40.9,40.1,29.67,SW,232,0.0,1.0,97,0.00,,,0.00,VWS V14.01,2013-02-27 05:36:00,
2013-02-27 00:41:00,40.9,40.1,29.67,SW,232,0.0,1.0,97,0.00,,,0.00,VWS V14.01,2013-02-27 05:41:00,
2013-02-27 00:46:00,40.9,40.1,29.67,SSW,193,1.0,1.0,97,0.00,,,0.00,VWS V14.01,2013-02-27 05:46:00,
2013-02-27 00:51:00,40.9,40.1,29.66,West,276,0.0,1.0,97,0.00,,,0.00,VWS V14.01,2013-02-27 05:51:00,
2013-02-27 00:56:00,40.9,40.1,29.66,NNE,25,2.0,2.0,97,0.00,,,0.00,VWS V14.01,2013-02-27 05:56:00,
2013-02-27 01:01:00,40.9,40.1,29.66,West,264,0.0,1.0,97,0.00,,,0.00,VWS V14.01,2013-02-27 06:01:00,
2013-02-27 01:06:00,40.9,40.1,29.66,South,172,0.0,1.0,97,0.00,,,0.00,VWS V14.01,2013-02-27 06:06:00,
2013-02-27 01:11:00,40.9,40.1,29.66,SSW,199,1.0,1.0,97,0.00,,,0.00,VWS V14.01,2013-02-27 06:11:00,
2013-02-27 01:16:00,40.8,40.0,29.66,SW,221,0.0,1.0,97,0.00,,,0.00,VWS V14.01,2013-02-27 06:16:00,
2013-02-27 01:21:00,40.7,39.9,29.66,SSW,206,1.0,1.0,97,0.00,,,0.00,VWS V14.01,2013-02-27 06:21:00,
2013-02-27 01:26:00,40.6,39.8,29.66,SSW,209,0.0,1.0,97,0.00,,,0.00,VWS V14.01,2013-02-27 06:26:00,
2013-02-27 01:31:00,40.5,39.5,29.66,SSW,209,0.0,1.0,96,0.00,,OVC014,0.00,VWS V14.01,2013-02-27 06:31:00,
2013-02-27 01:36:00,40.4,39.3,29.66,WNW,292,0.0,1.0,96,0.00,,OVC014,0.00,VWS V14.01,2013-02-27 06:36:00,
2013-02-27 01:41:00,40.2,39.2,29.66,WNW,292,0.0,1.0,96,0.00,,OVC014,0.00,VWS V14.01,2013-02-27 06:41:00,
2013-02-27 01:46:00,40.1,39.0,29.66,WNW,290,0.0,1.0,96,0.00,,OVC014,0.00,VWS V14.01,2013-02-27 06:46:00,
2013-02-27 01:51:00,39.9,38.8,29.66,SSW,212,0.0,1.0,96,0.00,,OVC014,0.00,VWS V14.01,2013-02-27 06:51:00,
2013-02-27 01:56:00,39.9,38.8,29.66,WSW,248,0.0,1.0,96,0.00,,OVC014,0.00,VWS V14.01,2013-02-27 06:56:00,
2013-02-27 02:01:00,39.8,38.8,29.66,WSW,248,0.0,1.0,96,0.00,,BKN014,0.00,VWS V14.01,2013-02-27 07:01:00,
2013-02-27 02:06:00,39.8,38.8,29.65,WSW,245,0.0,1.0,96,0.00,,BKN014,0.00,VWS V14.01,2013-02-27 07:06:00,
2013-02-27 02:11:00,39.8,38.8,29.65,SSW,198,0.0,1.0,96,0.00,,BKN014,0.00,VWS V14.01,2013-02-27 07:11:00,
2013-02-27 02:16:00,39.8,38.8,29.65,SSW,211,1.0,1.0,96,0.00,,BKN014,0.00,VWS V14.01,2013-02-27 07:16:00,
2013-02-27 02:21:00,39.8,39.0,29.65,SSE,155,0.0,1.0,97,0.00,,BKN014,0.00,VWS V14.01,2013-02-27 07:21:00,
2013-02-27 02:26:00,39.7,38.7,29.65,WNW,286,0.0,1.0,96,0.00,,BKN014,0.00,VWS V14.01,2013-02-27 07:26:00,
2013-02-27 02:31:00,39.7,38.7,29.65,NNE,17,2.0,2.0,96,0.00,,FEW012,0.00,VWS V14.01,2013-02-27 07:31:00,
2013-02-27 02:36:00,39.6,38.6,29.65,NE,46,0.0,1.0,96,0.00,,FEW012,0.00,VWS V14.01,2013-02-27 07:36:00,
2013-02-27 02:41:00,39.5,38.5,29.65,WNW,288,0.0,1.0,96,0.00,,FEW012,0.00,VWS V14.01,2013-02-27 07:41:00,
2013-02-27 02:46:00,39.5,38.5,29.65,WSW,246,1.0,1.0,96,0.00,,FEW012,0.00,VWS V14.01,2013-02-27 07:46:00,
2013-02-27 02:51:00,39.4,38.4,29.65,WSW,244,2.0,2.0,96,0.00,,FEW012,0.00,VWS V14.01,2013-02-27 07:51:00,
2013-02-27 02:56:00,39.4,38.4,29.65,SSE,149,0.0,1.0,96,0.00,,FEW012,0.00,VWS V14.01,2013-02-27 07:56:00,
2013-02-27 03:01:00,39.3,38.3,29.66,SSE,149,0.0,1.0,96,0.00,,CLR,0.00,VWS V14.01,2013-02-27 08:01:00,
2013-02-27 03:06:00,39.2,38.2,29.66,NW,312,1.0,1.0,96,0.00,,CLR,0.00,VWS V14.01,2013-02-27 08:06:00,
2013-02-27 03:11:00,39.1,37.8,29.66,NW,312,0.0,1.0,95,0.00,,CLR,0.00,VWS V14.01,2013-02-27 08:11:00,
2013-02-27 03:16:00,39.1,38.1,29.67,NW,312,0.0,1.0,96,0.00,,CLR,0.00,VWS V14.01,2013-02-27 08:16:00,
2013-02-27 03:21:00,39.0,38.0,29.66,NW,312,0.0,1.0,96,0.00,,CLR,0.00,VWS V14.01,2013-02-27 08:21:00,
2013-02-27 03:26:00,38.8,37.5,29.66,NW,312,0.0,1.0,95,0.00,,CLR,0.00,VWS V14.01,2013-02-27 08:26:00,
2013-02-27 03:31:00,38.7,37.4,29.66,NW,312,1.0,1.0,95,0.00,,CLR,0.00,VWS V14.01,2013-02-27 08:31:00,
2013-02-27 03:36:00,38.7,37.4,29.67,NW,312,0.0,1.0,95,0.00,,CLR,0.00,VWS V14.01,2013-02-27 08:36:00,
2013-02-27 03:41:00,38.6,37.3,29.66,NW,312,0.0,1.0,95,0.00,,CLR,0.00,VWS V14.01,2013-02-27 08:41:00,
2013-02-27 03:46:00,38.6,37.3,29.67,NW,312,0.0,1.0,95,0.00,,CLR,0.00,VWS V14.01,2013-02-27 08:46:00,
2013-02-27 03:51:00,38.5,37.2,29.66,NW,312,0.0,1.0,95,0.00,,CLR,0.00,VWS V14.01,2013-02-27 08:51:00,
2013-02-27 03:56:00,38.4,37.1,29.67,NW,312,0.0,1.0,95,0.00,,CLR,0.00,VWS V14.01,2013-02-27 08:56:00,
2013-02-27 04:01:00,38.3,37.0,29.67,NW,312,0.0,1.0,95,0.00,,CLR,0.00,VWS V14.01,2013-02-27 09:01:00,
2013-02-27 04:06:00,38.3,37.0,29.67,NW,312,0.0,1.0,95,0.00,,CLR,0.00,VWS V14.01,2013-02-27 09:06:00,
2013-02-27 04:11:00,38.2,36.9,29.67,NW,312,0.0,1.0,95,0.00,,CLR,0.00,VWS V14.01,2013-02-27 09:11:00,
2013-02-27 04:16:00,38.1,36.8,29.67,West,270,0.0,1.0,95,0.00,,CLR,0.00,VWS V14.01,2013-02-27 09:16:00,
2013-02-27 04:21:00,38.0,36.7,29.68,West,270,0.0,1.0,95,0.00,,CLR,0.00,VWS V14.01,2013-02-27 09:21:00,
2013-02-27 04:26:00,37.9,36.6,29.68,West,270,0.0,1.0,95,0.00,,CLR,0.00,VWS V14.01,2013-02-27 09:26:00,
2013-02-27 04:31:00,37.7,36.4,29.68,West,270,0.0,1.0,95,0.00,,CLR,0.00,VWS V14.01,2013-02-27 09:31:00,
2013-02-27 04:36:00,37.7,36.4,29.68,West,270,0.0,1.0,95,0.00,,CLR,0.00,VWS V14.01,2013-02-27 09:36:00,
2013-02-27 04:41:00,37.6,36.3,29.68,West,270,0.0,1.0,95,0.00,,CLR,0.00,VWS V14.01,2013-02-27 09:41:00,
2013-02-27 04:46:00,37.5,36.2,29.68,West,270,0.0,1.0,95,0.00,,CLR,0.00,VWS V14.01,2013-02-27 09:46:00,
2013-02-27 04:51:00,37.3,36.0,29.68,West,270,0.0,1.0,95,0.00,,CLR,0.00,VWS V14.01,2013-02-27 09:51:00,
2013-02-27 04:56:00,37.3,36.0,29.69,West,270,0.0,1.0,95,0.00,,CLR,0.00,VWS V14.01,2013-02-27 09:56:00,
2013-02-27 05:01:00,37.1,36.1,29.69,West,270,0.0,1.0,96,0.00,,FEW250,0.00,VWS V14.01,2013-02-27 10:01:00,
2013-02-27 05:06:00,37.0,36.0,29.70,West,270,0.0,1.0,96,0.00,,FEW250,0.00,VWS V14.01,2013-02-27 10:06:00,
2013-02-27 05:11:00,36.8,35.5,29.70,West,270,0.0,1.0,95,0.00,,FEW250,0.00,VWS V14.01,2013-02-27 10:11:00,
2013-02-27 05:16:00,36.7,35.7,29.70,West,270,0.0,1.0,96,0.00,,FEW250,0.00,VWS V14.01,2013-02-27 10:16:00,
2013-02-27 05:21:00,36.6,35.3,29.70,West,270,0.0,1.0,95,0.00,,FEW250,0.00,VWS V14.01,2013-02-27 10:21:00,
2013-02-27 05:26:00,36.5,35.5,29.70,West,270,0.0,1.0,96,0.00,,FEW250,0.00,VWS V14.01,2013-02-27 10:26:00,
2013-02-27 05:31:00,36.4,35.4,29.70,West,270,0.0,1.0,96,0.00,,FEW250,0.00,VWS V14.01,2013-02-27 10:31:00,
2013-02-27 05:36:00,36.3,35.3,29.71,West,270,0.0,1.0,96,0.00,,FEW250,0.00,VWS V14.01,2013-02-27 10:36:00,
2013-02-27 05:41:00,36.2,35.2,29.71,West,270,0.0,1.0,96,0.00,,FEW250,0.00,VWS V14.01,2013-02-27 10:41:00,
2013-02-27 05:46:00,36.2,35.2,29.71,West,270,0.0,1.0,96,0.00,,FEW250,0.00,VWS V14.01,2013-02-27 10:46:00,
2013-02-27 05:51:00,36.2,35.2,29.71,West,270,0.0,1.0,96,0.00,,FEW250,0.00,VWS V14.01,2013-02-27 10:51:00,
2013-02-27 05:56:00,36.2,35.2,29.72,West,270,0.0,1.0,96,0.00,,FEW250,0.00,VWS V14.01,2013-02-27 10:56:00,
2013-02-27 06:01:00,36.2,35.2,29.72,West,270,0.0,1.0,96,0.00,,CLR,0.00,VWS V14.01,2013-02-27 11:01:00,
2013-02-27 06:06:00,36.1,35.1,29.72,West,270,0.0,1.0,96,0.00,,CLR,0.00,VWS V14.01,2013-02-27 11:06:00,
2013-02-27 06:11:00,36.1,35.1,29.72,West,270,0.0,1.0,96,0.00,,CLR,0.00,VWS V14.01,2013-02-27 11:11:00,
2013-02-27 06:16:00,36.1,35.1,29.72,West,270,0.0,1.0,96,0.00,,CLR,0.00,VWS V14.01,2013-02-27 11:16:00,
2013-02-27 06:22:00,36.1,35.1,29.72,West,270,0.0,1.0,96,0.00,,CLR,0.00,VWS V14.01,2013-02-27 11:22:00,
2013-02-27 06:27:00,36.0,35.0,29.72,West,270,0.0,1.0,96,0.00,,CLR,0.00,VWS V14.01,2013-02-27 11:27:00,
2013-02-27 06:32:00,35.9,34.9,29.73,West,270,0.0,1.0,96,0.00,,CLR,0.00,VWS V14.01,2013-02-27 11:32:00,
2013-02-27 06:37:00,35.7,34.7,29.73,West,270,0.0,1.0,96,0.00,,CLR,0.00,VWS V14.01,2013-02-27 11:37:00,
2013-02-27 06:42:00,35.6,34.6,29.73,West,270,0.0,1.0,96,0.00,,CLR,0.00,VWS V14.01,2013-02-27 11:42:00,
2013-02-27 06:47:00,35.3,34.3,29.73,West,270,0.0,1.0,96,0.00,,CLR,0.00,VWS V14.01,2013-02-27 11:47:00,
2013-02-27 06:52:00,35.2,34.2,29.73,West,270,0.0,1.0,96,0.00,,CLR,0.00,VWS V14.01,2013-02-27 11:52:00,
2013-02-27 06:57:00,35.2,34.2,29.74,West,270,0.0,1.0,96,0.00,,CLR,0.00,VWS V14.01,2013-02-27 11:57:00,
2013-02-27 07:02:00,35.1,34.1,29.73,West,270,0.0,1.0,96,0.00,,FEW250,0.00,VWS V14.01,2013-02-27 12:02:00,
2013-02-27 07:07:00,34.9,33.9,29.74,West,270,0.0,1.0,96,0.00,,FEW250,0.00,VWS V14.01,2013-02-27 12:07:00,
2013-02-27 07:12:00,34.8,33.8,29.74,West,270,0.0,1.0,96,0.00,,FEW250,0.00,VWS V14.01,2013-02-27 12:12:00,
2013-02-27 07:17:00,34.9,33.9,29.74,West,270,0.0,1.0,96,0.00,,FEW250,0.00,VWS V14.01,2013-02-27 12:17:00,
2013-02-27 07:22:00,34.9,33.9,29.75,West,270,0.0,1.0,96,0.00,,FEW250,0.00,VWS V14.01,2013-02-27 12:22:00,
2013-02-27 07:27:00,34.8,33.8,29.75,West,270,0.0,1.0,96,0.00,,FEW250,0.00,VWS V14.01,2013-02-27 12:27:00,
2013-02-27 07:32:00,34.9,33.9,29.76,West,270,0.0,1.0,96,0.00,,FEW250,0.00,VWS V14.01,2013-02-27 12:32:00,
2013-02-27 07:37:00,35.1,34.1,29.76,West,270,0.0,1.0,96,0.00,,FEW250,0.00,VWS V14.01,2013-02-27 12:37:00,
2013-02-27 07:42:00,35.1,34.1,29.76,West,270,0.0,1.0,96,0.00,,FEW250,0.00,VWS V14.01,2013-02-27 12:42:00,
2013-02-27 07:47:00,35.2,34.2,29.76,West,270,0.0,1.0,96,0.00,,FEW250,0.00,VWS V14.01,2013-02-27 12:47:00,
2013-02-27 07:52:00,35.2,34.2,29.76,West,270,0.0,1.0,96,0.00,,FEW250,0.00,VWS V14.01,2013-02-27 12:52:00,
2013-02-27 07:57:00,35.4,34.6,29.76,West,270,0.0,1.0,97,0.00,,FEW250,0.00,VWS V14.01,2013-02-27 12:57:00,
2013-02-27 08:02:00,35.8,35.0,29.77,West,270,0.0,1.0,97,0.00,,FEW250,0.00,VWS V14.01,2013-02-27 13:02:00,
2013-02-27 08:07:00,36.1,35.3,29.77,West,270,0.0,1.0,97,0.00,,FEW250,0.00,VWS V14.01,2013-02-27 13:07:00,
2013-02-27 08:12:00,36.4,35.6,29.77,West,270,0.0,1.0,97,0.00,,FEW250,0.00,VWS V14.01,2013-02-27 13:12:00,
2013-02-27 08:17:00,36.8,36.0,29.77,West,270,0.0,1.0,97,0.00,,FEW250,0.00,VWS V14.01,2013-02-27 13:17:00,
2013-02-27 08:22:00,37.1,36.3,29.78,West,270,0.0,1.0,97,0.00,,FEW250,0.00,VWS V14.01,2013-02-27 13:22:00,
2013-02-27 08:27:00,37.5,36.7,29.78,West,270,0.0,1.0,97,0.00,,FEW250,0.00,VWS V14.01,2013-02-27 13:27:00,
2013-02-27 08:32:00,37.9,37.1,29.78,West,270,0.0,1.0,97,0.00,,FEW250,0.00,VWS V14.01,2013-02-27 13:32:00,
2013-02-27 08:37:00,38.2,37.4,29.78,WSW,248,1.0,1.0,97,0.00,,FEW250,0.00,VWS V14.01,2013-02-27 13:37:00,
2013-02-27 08:42:00,38.7,37.9,29.79,WSW,248,1.0,1.0,97,0.00,,FEW250,0.00,VWS V14.01,2013-02-27 13:42:00,
2013-02-27 08:47:00,39.1,38.3,29.79,NW,308,0.0,1.0,97,0.00,,FEW250,0.00,VWS V14.01,2013-02-27 13:47:00,
2013-02-27 08:52:00,39.5,38.2,29.79,NW,308,0.0,1.0,95,0.00,,FEW250,0.00,VWS V14.01,2013-02-27 13:52:00,
2013-02-27 08:57:00,39.9,38.3,29.79,NW,311,1.0,1.0,94,0.00,,FEW250,0.00,VWS V14.01,2013-02-27 13:57:00,
2013-02-27 09:02:00,40.4,38.3,29.80,West,273,1.0,1.0,92,0.00,,FEW250,0.00,VWS V14.01,2013-02-27 14:02:00,
2013-02-27 09:07:00,40.8,38.4,29.80,WSW,238,1.0,1.0,91,0.00,,FEW250,0.00,VWS V14.01,2013-02-27 14:07:00,
2013-02-27 09:12:00,41.3,38.6,29.80,WSW,238,0.0,1.0,90,0.00,,FEW250,0.00,VWS V14.01,2013-02-27 14:12:00,
2013-02-27 09:17:00,41.8,39.1,29.81,SW,225,1.0,1.0,90,0.00,,FEW250,0.00,VWS V14.01,2013-02-27 14:17:00,
2013-02-27 09:22:00,42.1,38.8,29.81,SW,230,2.0,2.0,88,0.00,,FEW250,0.00,VWS V14.01,2013-02-27 14:22:00,
2013-02-27 09:27:00,42.6,39.0,29.80,WNW,300,1.0,1.0,87,0.00,,FEW250,0.00,VWS V14.01,2013-02-27 14:27:00,
2013-02-27 09:32:00,42.9,39.3,29.80,SW,234,0.0,1.0,87,0.00,,FEW250,0.00,VWS V14.01,2013-02-27 14:32:00,
2013-02-27 09:37:00,43.3,39.1,29.80,WNW,301,0.0,1.0,85,0.00,,FEW250,0.00,VWS V14.01,2013-02-27 14:37:00,
2013-02-27 09:42:00,43.7,39.8,29.80,WNW,290,0.0,1.0,86,0.00,,FEW250,0.00,VWS V14.01,2013-02-27 14:42:00,
2013-02-27 09:47:00,44.0,39.2,29.80,WSW,257,0.0,1.0,83,0.00,,FEW250,0.00,VWS V14.01,2013-02-27 14:47:00,
2013-02-27 09:52:00,44.6,41.0,29.80,South,190,1.0,1.0,87,0.00,,FEW250,0.00,VWS V14.01,2013-02-27 14:52:00,
2013-02-27 09:57:00,44.9,40.1,29.80,SSW,210,0.0,1.0,83,0.00,,FEW250,0.00,VWS V14.01,2013-02-27 14:57:00,
2013-02-27 10:02:00,45.3,40.1,29.80,NW,323,0.0,1.0,82,0.00,,CLR,0.00,VWS V14.01,2013-02-27 15:02:00,
2013-02-27 10:07:00,45.6,40.1,29.80,NNW,345,1.0,1.0,81,0.00,,CLR,0.00,VWS V14.01,2013-02-27 15:07:00,
2013-02-27 10:12:00,46.0,40.5,29.80,NNW,345,0.0,1.0,81,0.00,,CLR,0.00,VWS V14.01,2013-02-27 15:12:00,
2013-02-27 10:17:00,46.3,40.5,29.80,South,172,0.0,1.0,80,0.00,,CLR,0.00,VWS V14.01,2013-02-27 15:17:00,
2013-02-27 10:22:00,46.6,40.5,29.80,South,172,0.0,1.0,79,0.00,,CLR,0.00,VWS V14.01,2013-02-27 15:22:00,
2013-02-27 10:27:00,46.9,39.7,29.79,SE,144,1.0,1.0,76,0.00,,CLR,0.00,VWS V14.01,2013-02-27 15:27:00,
2013-02-27 10:32:00,47.1,40.3,29.79,South,185,1.0,1.0,77,0.00,,CLR,0.00,VWS V14.01,2013-02-27 15:32:00,
2013-02-27 10:37:00,47.5,40.7,29.79,WSW,238,0.0,1.0,77,0.00,,CLR,0.00,VWS V14.01,2013-02-27 15:37:00,
2013-02-27 10:42:00,47.7,39.8,29.79,ENE,57,2.0,2.0,74,0.00,,CLR,0.00,VWS V14.01,2013-02-27 15:42:00,
2013-02-27 10:47:00,47.9,40.4,29.79,SSE,154,2.0,2.0,75,0.00,,CLR,0.00,VWS V14.01,2013-02-27 15:47:00,
2013-02-27 10:52:00,48.3,39.0,29.79,NW,306,0.0,1.0,70,0.00,,CLR,0.00,VWS V14.01,2013-02-27 15:52:00,
2013-02-27 10:57:00,48.7,41.5,29.79,SW,219,0.0,1.0,76,0.00,,CLR,0.00,VWS V14.01,2013-02-27 15:57:00,
2013-02-27 11:02:00,49.2,40.6,29.79,SSW,213,0.0,1.0,72,0.00,,SCT250,0.00,VWS V14.01,2013-02-27 16:02:00,
2013-02-27 11:07:00,49.7,40.3,29.80,NNW,337,2.0,2.0,70,0.00,,SCT250,0.00,VWS V14.01,2013-02-27 16:07:00,
2013-02-27 11:12:00,49.9,40.2,29.80,NNW,340,0.0,1.0,69,0.00,,SCT250,0.00,VWS V14.01,2013-02-27 16:12:00,
2013-02-27 11:17:00,50.3,40.5,29.80,NW,321,1.0,1.0,69,0.00,,SCT250,0.00,VWS V14.01,2013-02-27 16:17:00,
2013-02-27 11:22:00,50.7,42.0,29.80,SSW,198,0.0,1.0,72,0.00,,SCT250,0.00,VWS V14.01,2013-02-27 16:22:00,
2013-02-27 11:27:00,51.1,40.2,29.81,SSW,192,2.0,2.0,66,0.00,,SCT250,0.00,VWS V14.01,2013-02-27 16:27:00,
2013-02-27 11:32:00,51.3,40.0,29.81,WNW,291,0.0,1.0,65,0.00,,SCT250,0.00,VWS V14.01,2013-02-27 16:32:00,
2013-02-27 11:37:00,51.7,40.3,29.80,West,273,1.0,1.0,65,0.00,,SCT250,0.00,VWS V14.01,2013-02-27 16:37:00,
2013-02-27 11:42:00,52.1,40.7,29.79,NW,313,1.0,1.0,65,0.00,,SCT250,0.00,VWS V14.01,2013-02-27 16:42:00,
2013-02-27 11:47:00,52.3,40.1,29.79,ESE,119,2.0,2.0,63,0.00,,SCT250,0.00,VWS V14.01,2013-02-27 16:47:00,
2013-02-27 11:52:00,52.7,41.3,29.79,SSW,194,2.0,2.0,65,0.00,,SCT250,0.00,VWS V14.01,2013-02-27 16:52:00,
2013-02-27 11:57:00,52.6,40.0,29.79,NW,317,1.0,1.0,62,0.00,,SCT250,0.00,VWS V14.01,2013-02-27 16:57:00,
2013-02-27 12:02:00,52.4,38.9,29.79,NW,317,0.0,1.0,60,0.00,,SCT250,0.00,VWS V14.01,2013-02-27 17:02:00,
2013-02-27 12:07:00,52.4,39.4,29.79,SSW,202,2.0,2.0,61,0.00,,SCT250,0.00,VWS V14.01,2013-02-27 17:07:00,
2013-02-27 12:12:00,52.4,39.4,29.79,WSW,245,1.0,1.0,61,0.00,,SCT250,0.00,VWS V14.01,2013-02-27 17:12:00,
2013-02-27 12:17:00,52.6,40.8,29.79,SW,228,2.0,2.0,64,0.00,,SCT250,0.00,VWS V14.01,2013-02-27 17:17:00,
2013-02-27 12:23:00,52.7,40.1,29.78,West,262,2.0,2.0,62,0.00,,SCT250,0.00,VWS V14.01,2013-02-27 17:23:00,
2013-02-27 12:28:00,53.0,40.3,29.78,NNW,336,0.0,1.0,62,0.00,,SCT250,0.00,VWS V14.01,2013-02-27 17:28:00,
2013-02-27 12:33:00,53.1,39.6,29.78,NNW,344,2.0,2.0,60,0.00,,SCT250,0.00,VWS V14.01,2013-02-27 17:33:00,
2013-02-27 12:38:00,53.1,39.2,29.78,SW,225,1.0,1.0,59,0.00,,SCT250,0.00,VWS V14.01,2013-02-27 17:38:00,
2013-02-27 12:43:00,53.8,39.4,29.78,West,275,0.0,1.0,58,0.00,,SCT250,0.00,VWS V14.01,2013-02-27 17:43:00,
2013-02-27 12:48:00,54.2,41.1,29.77,South,186,3.0,3.0,61,0.00,,SCT250,0.00,VWS V14.01,2013-02-27 17:48:00,
2013-02-27 12:53:00,54.4,40.4,29.77,SW,219,1.0,1.0,59,0.00,,SCT250,0.00,VWS V14.01,2013-02-27 17:53:00,
2013-02-27 12:58:00,54.8,39.9,29.77,SSE,160,0.0,1.0,57,0.00,,SCT250,0.00,VWS V14.01,2013-02-27 17:58:00,
2013-02-27 13:03:00,55.0,40.1,29.77,WNW,298,0.0,1.0,57,0.00,,BKN250,0.00,VWS V14.01,2013-02-27 18:03:00,
2013-02-27 13:08:00,55.0,40.5,29.77,SW,236,3.0,3.0,58,0.00,,BKN250,0.00,VWS V14.01,2013-02-27 18:08:00,
2013-02-27 13:13:00,55.4,40.4,29.77,SE,141,2.0,2.0,57,0.00,,BKN250,0.00,VWS V14.01,2013-02-27 18:13:00,
2013-02-27 13:18:00,55.5,40.1,29.77,ESE,107,1.0,1.0,56,0.00,,BKN250,0.00,VWS V14.01,2013-02-27 18:18:00,
2013-02-27 13:23:00,55.6,39.7,29.77,SSW,193,2.0,2.0,55,0.00,,BKN250,0.00,VWS V14.01,2013-02-27 18:23:00,
2013-02-27 13:28:00,55.6,39.2,29.76,South,186,2.0,2.0,54,0.00,,BKN250,0.00,VWS V14.01,2013-02-27 18:28:00,
2013-02-27 13:33:00,55.5,38.7,29.76,NNW,343,0.0,1.0,53,0.00,,BKN250,0.00,VWS V14.01,2013-02-27 18:33:00,
2013-02-27 13:38:00,55.5,39.1,29.76,SSW,209,2.0,2.0,54,0.00,,BKN250,0.00,VWS V14.01,2013-02-27 18:38:00,
2013-02-27 13:43:00,55.6,39.7,29.76,NNW,344,4.0,4.0,55,0.00,,BKN250,0.00,VWS V14.01,2013-02-27 18:43:00,
2013-02-27 13:48:00,55.5,38.7,29.76,WSW,238,2.0,2.0,53,0.00,,BKN250,0.00,VWS V14.01,2013-02-27 18:48:00,
2013-02-27 13:53:00,55.4,39.5,29.76,North,5,2.0,2.0,55,0.00,,BKN250,0.00,VWS V14.01,2013-02-27 18:53:00,
2013-02-27 13:58:00,55.1,39.7,29.76,SSW,209,2.0,2.0,56,0.00,,BKN250,0.00,VWS V14.01,2013-02-27 18:58:00,
2013-02-27 14:03:00,54.9,38.6,29.75,West,272,1.0,1.0,54,0.00,,BKN250,0.00,VWS V14.01,2013-02-27 19:03:00,
2013-02-27 14:08:00,54.7,38.9,29.75,SSW,192,3.0,3.0,55,0.00,,BKN250,0.00,VWS V14.01,2013-02-27 19:08:00,
2013-02-27 14:13:00,54.8,39.9,29.76,WNW,296,1.0,1.0,57,0.00,,BKN250,0.00,VWS V14.01,2013-02-27 19:13:00,
2013-02-27 14:18:00,55.1,39.7,29.76,SSW,200,1.0,1.0,56,0.00,,BKN250,0.00,VWS V14.01,2013-02-27 19:18:00,
2013-02-27 14:23:00,55.6,40.2,29.76,NNW,330,2.0,2.0,56,0.00,,BKN250,0.00,VWS V14.01,2013-02-27 19:23:00,
2013-02-27 14:28:00,55.8,39.9,29.75,South,184,5.0,5.0,55,0.00,,BKN250,0.00,VWS V14.01,2013-02-27 19:28:00,
2013-02-27 14:33:00,55.8,39.9,29.75,SW,229,1.0,1.0,55,0.00,,BKN250,0.00,VWS V14.01,2013-02-27 19:33:00,
2013-02-27 14:38:00,56.1,40.2,29.75,NNW,330,1.0,1.0,55,0.00,,BKN250,0.00,VWS V14.01,2013-02-27 19:38:00,
2013-02-27 14:43:00,56.6,41.1,29.75,SW,234,1.0,1.0,56,0.00,,BKN250,0.00,VWS V14.01,2013-02-27 19:43:00,
2013-02-27 14:48:00,56.8,39.4,29.75,West,261,0.0,1.0,52,0.00,,BKN250,0.00,VWS V14.01,2013-02-27 19:48:00,
2013-02-27 14:53:00,56.7,39.8,29.74,WNW,296,0.0,1.0,53,0.00,,BKN250,0.00,VWS V14.01,2013-02-27 19:53:00,
2013-02-27 14:58:00,56.6,40.2,29.74,East,98,2.0,2.0,54,0.00,,BKN250,0.00,VWS V14.01,2013-02-27 19:58:00,
2013-02-27 15:03:00,56.4,39.5,29.74,NW,324,0.0,1.0,53,0.00,,BKN250,0.00,VWS V14.01,2013-02-27 20:03:00,
2013-02-27 15:08:00,56.4,40.0,29.74,South,174,4.0,4.0,54,0.00,,BKN250,0.00,VWS V14.01,2013-02-27 20:08:00,
2013-02-27 15:13:00,56.4,40.0,29.73,SSW,197,0.0,1.0,54,0.00,,BKN250,0.00,VWS V14.01,2013-02-27 20:13:00,
2013-02-27 15:18:00,56.5,40.5,29.74,WSW,252,1.0,1.0,55,0.00,,BKN250,0.00,VWS V14.01,2013-02-27 20:18:00,
2013-02-27 15:23:00,56.5,40.1,29.74,NW,314,1.0,1.0,54,0.00,,BKN250,0.00,VWS V14.01,2013-02-27 20:23:00,
2013-02-27 15:28:00,56.6,39.7,29.73,WSW,258,0.0,1.0,53,0.00,,BKN250,0.00,VWS V14.01,2013-02-27 20:28:00,
2013-02-27 15:33:00,56.7,40.3,29.73,NW,304,0.0,1.0,54,0.00,,BKN250,0.00,VWS V14.01,2013-02-27 20:33:00,
2013-02-27 15:38:00,56.9,40.9,29.73,SW,226,1.0,1.0,55,0.00,,BKN250,0.00,VWS V14.01,2013-02-27 20:38:00,
2013-02-27 15:43:00,57.0,40.1,29.73,WSW,247,2.0,2.0,53,0.00,,BKN250,0.00,VWS V14.01,2013-02-27 20:43:00,
2013-02-27 15:48:00,56.8,39.9,29.73,West,262,0.0,1.0,53,0.00,,BKN250,0.00,VWS V14.01,2013-02-27 20:48:00,
2013-02-27 15:53:00,56.5,40.1,29.73,West,274,1.0,1.0,54,0.00,,BKN250,0.00,VWS V14.01,2013-02-27 20:53:00,
2013-02-27 15:58:00,56.4,40.9,29.73,NNE,18,0.0,1.0,56,0.00,,BKN250,0.00,VWS V14.01,2013-02-27 20:58:00,
2013-02-27 16:03:00,56.2,39.8,29.73,SSW,204,0.0,1.0,54,0.00,,SCT250,0.00,VWS V14.01,2013-02-27 21:03:00,
2013-02-27 16:08:00,56.2,40.7,29.73,WSW,246,1.0,1.0,56,0.00,,SCT250,0.00,VWS V14.01,2013-02-27 21:08:00,
2013-02-27 16:13:00,56.2,39.8,29.73,WNW,301,2.0,2.0,54,0.00,,SCT250,0.00,VWS V14.01,2013-02-27 21:13:00,
2013-02-27 16:18:00,56.2,40.3,29.73,ENE,65,0.0,1.0,55,0.00,,SCT250,0.00,VWS V14.01,2013-02-27 21:18:00,
2013-02-27 16:23:00,56.0,39.6,29.73,SSW,193,2.0,2.0,54,0.00,,SCT250,0.00,VWS V14.01,2013-02-27 21:23:00,
2013-02-27 16:28:00,55.7,39.8,29.73,WSW,240,2.0,2.0,55,0.00,,SCT250,0.00,VWS V14.01,2013-02-27 21:28:00,
2013-02-27 16:33:00,55.5,39.1,29.73,WSW,253,0.0,1.0,54,0.00,,SCT250,0.00,VWS V14.01,2013-02-27 21:33:00,
2013-02-27 16:38:00,55.2,39.3,29.73,WSW,253,2.0,2.0,55,0.00,,SCT250,0.00,VWS V14.01,2013-02-27 21:38:00,
2013-02-27 16:43:00,55.0,39.2,29.73,WSW,248,1.0,1.0,55,0.00,,SCT250,0.00,VWS V14.01,2013-02-27 21:43:00,
2013-02-27 16:48:00,54.9,39.5,29.73,SW,229,0.0,1.0,56,0.00,,SCT250,0.00,VWS V14.01,2013-02-27 21:48:00,
2013-02-27 16:53:00,54.8,39.0,29.73,SSW,196,4.0,4.0,55,0.00,,SCT250,0.00,VWS V14.01,2013-02-27 21:53:00,
2013-02-27 16:58:00,54.6,39.2,29.73,NW,314,2.0,2.0,56,0.00,,SCT250,0.00,VWS V14.01,2013-02-27 21:58:00,
2013-02-27 17:03:00,54.5,40.5,29.73,NW,316,0.0,1.0,59,0.00,,SCT250,0.00,VWS V14.01,2013-02-27 22:03:00,
2013-02-27 17:08:00,54.4,39.5,29.73,SE,144,1.0,1.0,57,0.00,,SCT250,0.00,VWS V14.01,2013-02-27 22:08:00,
2013-02-27 17:13:00,54.3,39.0,29.73,NW,306,0.0,1.0,56,0.00,,SCT250,0.00,VWS V14.01,2013-02-27 22:13:00,
2013-02-27 17:18:00,54.2,38.9,29.73,SSE,165,1.0,1.0,56,0.00,,SCT250,0.00,VWS V14.01,2013-02-27 22:18:00,
2013-02-27 17:23:00,54.0,38.7,29.72,NW,315,0.0,1.0,56,0.00,,SCT250,0.00,VWS V14.01,2013-02-27 22:23:00,
2013-02-27 17:28:00,53.9,39.5,29.73,NW,317,0.0,1.0,58,0.00,,SCT250,0.00,VWS V14.01,2013-02-27 22:28:00,
2013-02-27 17:33:00,53.7,38.8,29.72,SW,227,0.0,1.0,57,0.00,,SCT250,0.00,VWS V14.01,2013-02-27 22:33:00,
2013-02-27 17:38:00,53.6,38.8,29.72,SSW,193,1.0,1.0,57,0.00,,SCT250,0.00,VWS V14.01,2013-02-27 22:38:00,
2013-02-27 17:43:00,53.5,39.1,29.72,South,191,1.0,1.0,58,0.00,,SCT250,0.00,VWS V14.01,2013-02-27 22:43:00,
2013-02-27 17:48:00,53.4,39.0,29.72,WNW,284,0.0,1.0,58,0.00,,SCT250,0.00,VWS V14.01,2013-02-27 22:48:00,
2013-02-27 17:53:00,53.2,39.3,29.73,WSW,244,2.0,2.0,59,0.00,,SCT250,0.00,VWS V14.01,2013-02-27 22:53:00,
2013-02-27 17:58:00,53.0,39.5,29.73,WSW,244,0.0,1.0,60,0.00,,SCT250,0.00,VWS V14.01,2013-02-27 22:58:00,
2013-02-27 18:03:00,52.8,39.3,29.73,WNW,284,0.0,1.0,60,0.00,,SCT250,0.00,VWS V14.01,2013-02-27 23:03:00,
2013-02-27 18:08:00,52.5,39.0,29.73,WNW,284,0.0,1.0,60,0.00,,SCT250,0.00,VWS V14.01,2013-02-27 23:08:00,
2013-02-27 18:13:00,52.2,39.6,29.74,South,190,0.0,1.0,62,0.00,,SCT250,0.00,VWS V14.01,2013-02-27 23:13:00,
2013-02-27 18:18:00,52.0,39.4,29.74,West,265,0.0,1.0,62,0.00,,SCT250,0.00,VWS V14.01,2013-02-27 23:18:00,
2013-02-27 18:23:00,51.8,38.8,29.73,NW,314,0.0,1.0,61,0.00,,SCT250,0.00,VWS V14.01,2013-02-27 23:23:00,
2013-02-27 18:28:00,51.6,38.6,29.73,NW,314,0.0,1.0,61,0.00,,SCT250,0.00,VWS V14.01,2013-02-27 23:28:00,
2013-02-27 18:33:00,51.4,39.2,29.73,NW,314,1.0,1.0,63,0.00,,SCT250,0.00,VWS V14.01,2013-02-27 23:33:00,
2013-02-27 18:38:00,51.1,38.5,29.73,NW,314,0.0,1.0,62,0.00,,SCT250,0.00,VWS V14.01,2013-02-27 23:38:00,
2013-02-27 18:44:00,50.9,38.8,29.73,NW,310,0.0,1.0,63,0.00,,SCT250,0.00,VWS V14.01,2013-02-27 23:44:00,
2013-02-27 18:49:00,50.6,38.5,29.74,SSE,161,0.0,1.0,63,0.00,,SCT250,0.00,VWS V14.01,2013-02-27 23:49:00,
2013-02-27 18:54:00,50.4,38.3,29.73,SSE,161,0.0,1.0,63,0.00,,SCT250,0.00,VWS V14.01,2013-02-27 23:54:00,
2013-02-27 18:59:00,50.1,38.4,29.74,SSE,161,0.0,1.0,64,0.00,,SCT250,0.00,VWS V14.01,2013-02-27 23:59:00,
2013-02-27 19:04:00,49.9,38.2,29.73,SSE,161,0.0,1.0,64,0.00,,FEW250,0.00,VWS V14.01,2013-02-28 00:04:00,
2013-02-27 19:09:00,49.7,38.4,29.74,SSE,161,0.0,1.0,65,0.00,,FEW250,0.00,VWS V14.01,2013-02-28 00:09:00,
2013-02-27 19:14:00,49.4,38.1,29.74,SSE,161,0.0,1.0,65,0.00,,FEW250,0.00,VWS V14.01,2013-02-28 00:14:00,
2013-02-27 19:19:00,49.1,38.6,29.74,SSE,161,0.0,1.0,67,0.00,,FEW250,0.00,VWS V14.01,2013-02-28 00:19:00,
2013-02-27 19:24:00,48.9,38.4,29.74,SSE,161,0.0,1.0,67,0.00,,FEW250,0.00,VWS V14.01,2013-02-28 00:24:00,
2013-02-27 19:29:00,48.6,38.5,29.74,SSE,161,0.0,1.0,68,0.00,,FEW250,0.00,VWS V14.01,2013-02-28 00:29:00,
2013-02-27 19:34:00,48.2,38.5,29.74,SSE,161,0.0,1.0,69,0.00,,FEW250,0.00,VWS V14.01,2013-02-28 00:34:00,
2013-02-27 19:39:00,47.9,38.6,29.73,SSE,161,0.0,1.0,70,0.00,,FEW250,0.00,VWS V14.01,2013-02-28 00:39:00,
2013-02-27 19:44:00,47.6,38.3,29.74,SSE,161,0.0,1.0,70,0.00,,FEW250,0.00,VWS V14.01,2013-02-28 00:44:00,
2013-02-27 19:49:00,47.3,38.7,29.73,SSE,165,0.0,1.0,72,0.00,,FEW250,0.00,VWS V14.01,2013-02-28 00:49:00,
2013-02-27 19:54:00,47.0,38.1,29.73,SSE,165,0.0,1.0,71,0.00,,FEW250,0.00,VWS V14.01,2013-02-28 00:54:00,
2013-02-27 19:59:00,46.8,38.3,29.73,SSE,165,0.0,1.0,72,0.00,,FEW250,0.00,VWS V14.01,2013-02-28 00:59:00,
2013-02-27 20:04:00,46.7,38.2,29.73,SSE,165,0.0,1.0,72,0.00,,CLR,0.00,VWS V14.01,2013-02-28 01:04:00,
2013-02-27 20:09:00,46.5,38.0,29.73,SSE,165,0.0,1.0,72,0.00,,CLR,0.00,VWS V14.01,2013-02-28 01:09:00,
2013-02-27 20:14:00,46.4,37.9,29.73,SSE,165,0.0,1.0,72,0.00,,CLR,0.00,VWS V14.01,2013-02-28 01:14:00,
2013-02-27 20:19:00,46.3,38.1,29.73,SSE,165,0.0,1.0,73,0.00,,CLR,0.00,VWS V14.01,2013-02-28 01:19:00,
2013-02-27 20:24:00,46.3,38.1,29.73,WNW,286,0.0,1.0,73,0.00,,CLR,0.00,VWS V14.01,2013-02-28 01:24:00,
2013-02-27 20:29:00,46.3,38.1,29.73,WNW,286,0.0,1.0,73,0.00,,CLR,0.00,VWS V14.01,2013-02-28 01:29:00,
2013-02-27 20:34:00,46.3,37.8,29.73,WNW,286,0.0,1.0,72,0.00,,CLR,0.00,VWS V14.01,2013-02-28 01:34:00,
2013-02-27 20:39:00,46.3,37.8,29.73,WNW,286,0.0,1.0,72,0.00,,CLR,0.00,VWS V14.01,2013-02-28 01:39:00,
2013-02-27 20:44:00,46.2,37.7,29.73,WNW,286,0.0,1.0,72,0.00,,CLR,0.00,VWS V14.01,2013-02-28 01:44:00,
2013-02-27 20:49:00,46.1,37.2,29.73,WNW,286,0.0,1.0,71,0.00,,CLR,0.00,VWS V14.01,2013-02-28 01:49:00,
2013-02-27 20:54:00,46.0,37.5,29.73,WNW,286,0.0,1.0,72,0.00,,CLR,0.00,VWS V14.01,2013-02-28 01:54:00,
2013-02-27 20:59:00,45.9,37.4,29.73,WNW,286,0.0,1.0,72,0.00,,CLR,0.00,VWS V14.01,2013-02-28 01:59:00,
2013-02-27 21:04:00,45.8,37.3,29.73,WNW,286,0.0,1.0,72,0.00,,CLR,0.00,VWS V14.01,2013-02-28 02:04:00,
2013-02-27 21:09:00,45.7,37.2,29.73,WNW,286,0.0,1.0,72,0.00,,CLR,0.00,VWS V14.01,2013-02-28 02:09:00,
2013-02-27 21:14:00,45.5,37.4,29.73,WNW,286,0.0,1.0,73,0.00,,CLR,0.00,VWS V14.01,2013-02-28 02:14:00,
2013-02-27 21:19:00,45.4,37.3,29.73,WNW,286,0.0,1.0,73,0.00,,CLR,0.00,VWS V14.01,2013-02-28 02:19:00,
2013-02-27 21:24:00,45.3,36.8,29.73,WSW,245,0.0,1.0,72,0.00,,CLR,0.00,VWS V14.01,2013-02-28 02:24:00,
2013-02-27 21:29:00,45.4,36.6,29.73,NNE,22,0.0,1.0,71,0.00,,CLR,0.00,VWS V14.01,2013-02-28 02:29:00,
2013-02-27 21:34:00,45.8,36.6,29.73,West,278,0.0,1.0,70,0.00,,CLR,0.00,VWS V14.01,2013-02-28 02:34:00,
2013-02-27 21:39:00,46.1,36.1,29.73,West,278,0.0,1.0,68,0.00,,CLR,0.00,VWS V14.01,2013-02-28 02:39:00,
2013-02-27 21:44:00,46.3,36.7,29.73,West,271,1.0,1.0,69,0.00,,CLR,0.00,VWS V14.01,2013-02-28 02:44:00,
2013-02-27 21:49:00,46.4,36.4,29.72,West,271,2.0,2.0,68,0.00,,CLR,0.00,VWS V14.01,2013-02-28 02:49:00,
2013-02-27 21:54:00,46.7,36.0,29.73,West,281,1.0,1.0,66,0.00,,CLR,0.00,VWS V14.01,2013-02-28 02:54:00,
2013-02-27 21:59:00,46.9,36.2,29.72,West,281,0.0,1.0,66,0.00,,CLR,0.00,VWS V14.01,2013-02-28 02:59:00,
2013-02-27 22:04:00,47.1,35.6,29.73,WSW,253,0.0,1.0,64,0.00,,CLR,0.00,VWS V14.01,2013-02-28 03:04:00,
2013-02-27 22:09:00,47.5,35.9,29.73,West,266,0.0,1.0,64,0.00,,CLR,0.00,VWS V14.01,2013-02-28 03:09:00,
2013-02-27 22:14:00,47.7,35.7,29.72,WSW,254,0.0,1.0,63,0.00,,CLR,0.00,VWS V14.01,2013-02-28 03:14:00,
2013-02-27 22:19:00,47.8,35.8,29.72,WSW,257,1.0,1.0,63,0.00,,CLR,0.00,VWS V14.01,2013-02-28 03:19:00,
2013-02-27 22:24:00,47.9,35.9,29.73,WSW,247,0.0,1.0,63,0.00,,CLR,0.00,VWS V14.01,2013-02-28 03:24:00,
2013-02-27 22:29:00,48.0,35.6,29.72,SW,222,1.0,1.0,62,0.00,,CLR,0.00,VWS V14.01,2013-02-28 03:29:00,
2013-02-27 22:34:00,48.0,35.6,29.72,West,268,1.0,1.0,62,0.00,,CLR,0.00,VWS V14.01,2013-02-28 03:34:00,
2013-02-27 22:39:00,48.0,36.0,29.72,NW,308,1.0,1.0,63,0.00,,CLR,0.00,VWS V14.01,2013-02-28 03:39:00,
2013-02-27 22:44:00,47.9,35.5,29.72,WSW,238,1.0,1.0,62,0.00,,CLR,0.00,VWS V14.01,2013-02-28 03:44:00,
2013-02-27 22:49:00,47.9,35.9,29.72,WSW,241,1.0,1.0,63,0.00,,CLR,0.00,VWS V14.01,2013-02-28 03:49:00,
2013-02-27 22:54:00,47.9,35.5,29.72,SW,221,1.0,1.0,62,0.00,,CLR,0.00,VWS V14.01,2013-02-28 03:54:00,
2013-02-27 22:59:00,47.8,35.4,29.72,NW,313,0.0,1.0,62,0.00,,CLR,0.00,VWS V14.01,2013-02-28 03:59:00,
2013-02-27 23:04:00,47.7,35.3,29.72,SSW,208,0.0,1.0,62,0.00,,CLR,0.00,VWS V14.01,2013-02-28 04:04:00,
2013-02-27 23:09:00,47.6,35.2,29.72,SW,227,0.0,1.0,62,0.00,,CLR,0.00,VWS V14.01,2013-02-28 04:09:00,
2013-02-27 23:14:00,47.6,35.2,29.72,WNW,294,1.0,1.0,62,0.00,,CLR,0.00,VWS V14.01,2013-02-28 04:14:00,
2013-02-27 23:19:00,47.8,35.4,29.72,South,178,0.0,1.0,62,0.00,,CLR,0.00,VWS V14.01,2013-02-28 04:19:00,
2013-02-27 23:24:00,47.8,35.0,29.72,SW,214,1.0,1.0,61,0.00,,CLR,0.00,VWS V14.01,2013-02-28 04:24:00,
2013-02-27 23:29:00,47.8,34.6,29.72,North,351,0.0,1.0,60,0.00,,CLR,0.00,VWS V14.01,2013-02-28 04:29:00,
2013-02-27 23:34:00,47.8,35.0,29.72,NNW,343,1.0,1.0,61,0.00,,CLR,0.00,VWS V14.01,2013-02-28 04:34:00,
2013-02-27 23:39:00,47.8,34.6,29.72,WNW,292,2.0,2.0,60,0.00,,CLR,0.00,VWS V14.01,2013-02-28 04:39:00,
2013-02-27 23:44:00,47.7,34.5,29.72,WNW,292,0.0,1.0,60,0.00,,CLR,0.00,VWS V14.01,2013-02-28 04:44:00,
2013-02-27 23:49:00,47.6,35.2,29.72,West,274,0.0,1.0,62,0.00,,CLR,0.00,VWS V14.01,2013-02-28 04:49:00,
2013-02-27 23:54:00,47.4,34.6,29.72,West,274,0.0,1.0,61,0.00,,CLR,0.00,VWS V14.01,2013-02-28 04:54:00,
2013-02-27 23:59:00,47.3,34.5,29.72,West,274,0.0,1.0,61,0.00,,CLR,0.00,VWS V14.01,2013-02-28 04:59:00,